Torna al catalogo

BLOCK DM R/B

AttivoHEO
NORAD 26769·ROCKET BODY·🇷🇺 Russia

Lanciato May 15, 2001 da Baikonur Cosmodrome

Loading…

Prossimi Passaggi (prossime 24 ore)

TLE

In scadenzaSource: Space-Track

Epoca: Aug 28, 2026, 08:07 UTC

1 26769U 01019D   26240.33876935 -.00000166  00000-0  00000+0 0  9992
2 26769  18.6010 356.3026 5174064  15.3933   1.6952  1.86699251172497

Traccia BLOCK DM R/B in tempo reale con AllMySat

Download on the App Store